Theta_e
344 343 343 343 343 341 340 339 340 342 340 339 340 339 337 336 336 335 335 335 335 334 335 337 338 338 337 337 336 335 336 338 338 338 337 336 336 335 335 336 336 336 336 337 338 339 339 339 340 340 340 340 340 340 341 341 341 341 341 340 340 342 346 349 351 350 349 349 350 349 349 349 350 350 349 349 350 351 352 352 352 353 354 355 356
344 343 343 343 342 340 340 340 340 341 340 340 341 339 336 336 335 336 336 335 336 336 337 339 339 338 338 338 336 336 337 337 337 337 336 336 336 335 335 335 334 334 334 335 336 337 338 339 339 338 337 336 335 336 338 340 341 341 342 342 342 342 343 346 349 350 349 349 350 350 349 349 350 350 350 350 350 351 351 351 351 352 352 353 355
343 342 342 341 340 340 341 341 341 341 341 340 340 339 338 337 336 336 336 336 338 339 339 340 339 339 339 338 338 338 338 338 338 337 337 337 336 336 336 335 335 334 334 335 336 338 340 339 338 336 333 331 331 329 331 336 339 341 341 342 343 343 343 344 346 348 348 348 348 348 348 348 349 350 350 350 351 351 351 351 351 351 352 353 353
342 341 341 340 339 340 341 341 341 342 343 341 338 339 340 339 338 338 338 338 339 339 340 340 339 339 339 338 339 338 338 338 338 339 338 338 337 337 336 336 336 336 335 335 336 339 340 338 337 335 332 331 330 328 329 333 336 338 340 341 342 343 344 343 344 346 346 346 346 345 346 346 347 347 348 349 351 351 351 351 352 352 353 354 354
343 343 342 341 341 341 341 342 342 343 342 342 341 341 341 340 340 340 340 340 339 339 339 339 338 339 339 339 339 339 339 339 339 339 338 338 338 337 337 337 337 337 336 336 336 338 339 338 336 334 332 331 330 329 330 334 336 337 338 340 342 342 342 343 343 343 344 345 345 344 344 345 344 344 345 347 349 349 349 349 350 351 352 352 353
343 343 343 343 343 343 343 343 343 343 342 342 343 342 342 341 341 341 341 340 340 339 339 339 339 339 339 339 339 339 339 339 338 338 338 338 338 338 338 337 336 337 337 337 337 338 338 337 335 333 332 331 329 328 330 334 337 338 339 340 340 340 340 341 341 341 342 343 344 344 345 345 344 342 341 342 343 344 345 346 346 347 348 349 350
343 344 344 345 343 343 344 343 343 342 342 342 342 342 341 341 341 341 341 341 340 341 341 340 340 340 340 340 339 339 339 339 339 339 338 338 338 338 338 337 336 336 337 337 337 338 337 335 333 332 331 331 330 329 331 334 336 337 337 338 339 339 340 340 340 341 342 343 343 344 344 344 344 342 339 338 339 341 343 345 345 345 346 347 348
343 343 344 345 344 342 343 344 343 343 343 343 342 341 341 340 341 341 341 341 341 341 341 341 340 340 340 340 339 339 339 339 339 338 338 338 339 339 338 337 336 336 336 337 337 337 336 334 332 331 331 330 330 331 332 333 335 334 333 335 337 339 340 341 341 342 342 343 343 343 343 342 343 342 341 340 341 340 341 344 347 347 347 348 347
343 343 343 343 344 344 343 344 343 343 343 342 342 341 341 341 341 341 341 341 341 341 341 341 341 340 340 340 339 339 339 338 338 338 338 338 337 336 335 335 336 335 334 335 335 335 334 332 332 331 331 331 331 332 332 332 333 334 334 335 336 337 338 340 341 341 342 342 342 342 342 342 342 342 341 342 342 341 341 344 347 347 346 346 346
343 343 343 344 344 344 344 343 343 343 343 342 342 342 342 341 341 341 341 341 341 341 341 341 340 339 339 339 338 338 337 335 335 336 336 335 333 332 332 332 333 334 333 333 333 333 332 331 332 331 331 332 332 332 332 332 333 334 335 336 336 335 336 338 340 340 341 342 342 341 341 341 342 342 341 341 342 342 343 344 345 346 345 346 346
343 343 344 344 344 345 344 344 343 343 343 343 343 342 342 342 342 341 341 341 341 342 341 340 339 338 338 337 335 335 334 334 334 333 332 331 330 330 330 330 330 331 332 332 332 331 331 331 332 332 331 332 332 331 332 332 333 334 335 336 336 336 336 337 338 339 340 341 341 341 341 341 341 341 341 342 341 341 342 342 343 345 345 345 345
345 344 344 344 344 345 343 343 344 343 343 343 343 343 342 342 342 341 341 341 341 341 339 338 337 336 335 335 333 332 332 333 333 331 329 329 329 329 329 329 330 330 330 330 330 330 330 331 332 332 332 332 332 332 332 333 333 334 335 335 335 336 336 336 337 338 339 340 340 340 340 340 339 340 340 341 341 341 342 342 343 344 344 344 344
345 346 346 345 345 344 343 344 344 343 343 343 342 343 342 342 342 341 341 341 340 339 337 336 334 333 332 332 331 330 330 330 330 329 329 329 330 330 330 330 330 330 330 330 330 330 331 331 332 332 332 332 332 332 333 333 334 334 333 333 333 333 334 335 336 336 337 338 339 339 339 339 339 339 339 339 340 341 342 342 341 342 343 343 343
346 346 346 346 346 345 344 344 344 343 343 343 342 342 341 342 341 340 340 339 338 336 334 332 331 331 330 329 329 329 328 329 329 329 330 331 331 331 331 331 331 331 331 330 331 331 332 332 332 332 331 331 331 331 333 333 333 333 332 332 333 333 334 334 334 335 335 336 337 338 337 337 338 339 338 338 340 341 341 340 340 340 341 342 342
347 346 347 347 346 345 343 343 343 343 342 342 342 342 341 341 340 339 338 337 335 333 331 330 330 329 328 328 328 329 329 329 330 331 331 331 331 331 331 331 331 331 331 331 331 331 331 331 331 331 331 331 331 331 333 333 333 333 333 333 333 333 334 334 334 334 334 334 335 335 336 336 337 337 337 338 339 340 340 340 340 341 341 342 342
347 347 346 346 345 344 343 343 343 342 341 341 342 341 340 340 339 338 337 334 332 330 329 328 328 328 328 329 330 330 329 329 330 332 332 331 331 330 331 331 331 331 330 330 330 330 331 331 331 331 331 331 331 331 332 333 333 333 333 333 333 333 333 333 333 332 332 334 335 334 334 334 335 335 335 336 337 337 338 339 340 341 341 341 340
348 346 345 344 343 342 341 341 342 341 341 342 341 340 339 339 338 337 335 333 331 329 328 327 328 329 330 330 330 330 330 330 331 332 332 331 330 331 331 330 330 330 330 330 330 330 330 330 330 330 330 330 330 330 331 332 332 332 331 331 331 331 331 331 331 330 330 331 332 332 331 331 332 332 333 334 334 334 334 335 337 338 339 341 341
348 346 345 344 341 340 340 340 341 342 341 341 340 339 338 338 337 335 333 332 330 329 328 328 329 330 330 330 330 331 331 331 330 330 330 329 328 329 329 329 329 329 329 329 329 329 329 329 329 329 329 328 329 329 330 330 330 329 329 329 328 329 329 329 329 328 328 327 328 328 328 328 328 328 329 330 331 331 331 332 333 334 337 339 339
348 346 344 342 341 341 341 341 341 341 341 340 339 338 337 335 333 330 330 330 329 328 329 329 329 330 330 330 331 331 329 328 326 326 326 324 324 326 327 327 326 326 327 327 327 327 326 326 326 327 327 328 327 328 328 328 329 329 329 328 327 327 328 328 327 326 325 325 324 324 324 324 324 325 325 326 327 327 327 329 330 333 335 336 336
346 344 343 342 342 341 341 341 341 341 339 338 336 335 333 331 328 327 328 329 328 328 329 329 330 331 331 331 330 327 325 324 324 326 325 323 323 325 325 323 322 322 323 323 323 323 322 323 323 323 324 326 326 326 327 327 328 328 328 327 326 326 327 326 325 324 323 322 322 321 322 322 322 322 322 323 324 324 324 324 325 329 333 334 334
344 343 343 343 341 341 342 341 340 337 335 333 332 332 330 329 330 330 330 330 330 330 330 331 332 331 329 327 325 322 322 322 324 325 325 323 323 324 324 323 322 321 321 321 321 321 321 322 322 322 322 323 323 324 325 326 327 327 328 327 325 324 324 324 323 322 321 321 321 321 321 321 321 321 322 322 322 322 322 323 323 325 328 332 333
344 343 343 342 342 342 341 338 335 333 331 331 330 331 331 332 332 332 332 332 331 331 331 331 330 328 325 323 322 321 322 322 322 323 324 324 323 324 324 324 323 322 321 321 321 321 321 322 322 322 322 322 322 323 323 324 325 326 326 325 323 323 323 322 321 321 320 321 321 321 321 321 321 321 322 322 322 322 323 323 324 326 327 330 332
343 343 343 342 342 339 336 334 334 333 331 331 331 332 332 332 331 330 329 328 327 327 327 326 325 324 323 322 321 322 322 322 322 322 323 323 323 324 325 325 324 323 322 321 321 321 321 322 321 321 321 321 320 320 321 322 323 323 324 324 323 322 322 321 321 320 320 321 321 321 321 321 321 322 322 322 322 322 323 324 324 326 328 329 331
343 342 341 341 339 336 334 335 336 336 334 332 331 330 329 328 327 325 324 324 324 323 323 323 323 323 323 322 322 322 322 322 322 322 322 323 323 324 325 324 323 322 322 321 321 321 321 321 320 320 319 319 318 318 318 319 320 321 322 323 323 321 321 320 320 320 320 321 321 321 321 321 321 321 322 322 322 322 322 323 323 324 325 327 328
342 340 339 339 338 337 336 336 336 336 334 331 328 327 326 326 325 324 324 324 324 324 324 324 323 323 323 323 322 322 323 323 322 322 322 322 322 322 322 322 321 320 320 320 320 321 321 320 319 319 318 318 318 317 317 317 317 318 320 321 320 320 320 320 320 320 320 320 320 321 321 321 321 321 321 322 322 322 322 322 323 323 325 326 327
339 338 338 337 335 334 333 330 330 330 328 327 327 327 326 325 324 323 324 324 324 324 324 324 324 324 324 323 323 322 323 322 322 322 322 322 321 321 321 320 319 319 319 319 319 319 319 319 319 319 318 318 318 317 317 317 317 317 318 318 318 318 319 319 319 320 320 320 320 321 321 321 321 322 322 322 322 322 323 323 324 324 325 327 328
336 335 333 330 328 328 328 327 327 326 326 326 327 326 325 324 323 323 324 324 324 324 324 325 325 325 324 323 322 322 322 322 322 322 322 322 321 321 320 319 318 318 318 319 319 318 318 318 319 319 319 318 318 317 317 317 318 318 318 318 318 318 319 319 319 319 320 320 320 321 321 322 322 322 323 323 323 323 323 324 325 327 327 328 329
331 329 328 325 324 325 326 327 327 326 326 326 326 325 325 323 322 322 323 323 324 325 325 325 324 323 323 322 322 322 322 322 322 322 322 321 320 319 318 318 317 317 317 318 319 319 318 319 319 319 319 318 318 317 318 318 318 318 318 318 319 319 319 319 320 320 321 321 321 322 322 323 323 323 323 323 323 324 324 325 326 327 328 329 330
328 327 327 326 324 324 326 327 327 326 326 326 325 324 323 322 322 323 323 323 324 325 325 323 322 322 322 322 322 322 321 321 322 322 321 320 319 318 317 317 317 317 317 317 318 318 318 318 318 318 318 317 317 317 318 318 318 318 318 318 319 319 320 320 321 321 322 322 323 323 323 323 323 324 324 324 324 324 325 325 325 327 328 329 331
328 327 327 326 325 325 325 325 324 323 323 322 322 321 320 321 323 323 323 322 322 322 322 321 320 320 321 322 322 321 321 322 322 321 320 318 318 318 318 317 317 317 317 317 318 318 317 317 316 317 317 317 317 317 318 318 318 319 319 319 320 320 321 321 322 322 322 323 323 323 323 323 324 324 325 326 326 326 326 326 325 326 328 330 331
328 328 327 326 326 326 324 321 320 319 319 320 321 321 321 322 321 320 321 321 319 319 319 318 318 318 319 321 322 321 321 321 320 319 318 318 318 318 318 318 318 318 317 318 318 317 317 316 316 317 317 317 317 317 318 318 319 319 320 320 321 321 322 322 322 323 323 323 323 323 324 324 325 326 327 327 328 328 328 328 327 327 328 330 330
327 328 327 326 326 325 322 319 318 318 319 321 322 322 323 323 321 319 319 318 317 316 316 316 316 317 317 319 321 322 320 319 317 317 318 318 318 318 318 318 318 318 317 318 317 317 317 317 317 317 317 317 317 318 318 319 320 320 321 321 321 322 322 323 323 324 324 324 324 325 325 326 327 328 328 329 329 329 330 330 330 330 330 330 330
327 328 327 325 323 320 318 318 319 319 320 321 322 322 322 322 321 320 318 316 314 315 315 315 316 316 316 319 321 320 316 315 316 317 318 318 318 318 318 318 318 318 318 318 317 317 318 318 318 318 318 318 318 319 320 320 321 321 322 322 323 323 323 324 324 324 325 325 326 327 327 327 328 328 328 329 329 329 330 330 330 331 331 331 331
329 329 326 322 318 316 316 317 318 319 319 320 321 321 320 318 319 319 317 315 314 315 315 315 314 314 317 319 319 315 312 314 316 318 318 318 318 318 318 318 318 318 318 318 317 317 317 317 318 318 319 319 319 320 320 321 322 322 323 323 323 324 324 324 325 325 326 327 327 327 326 326 327 328 328 328 329 329 330 330 330 331 331 331 332
330 328 322 317 315 315 316 317 317 317 318 318 318 318 317 316 317 316 315 315 316 316 316 316 314 315 318 318 314 311 313 316 318 318 318 318 318 318 318 318 318 319 318 317 317 317 316 317 317 317 318 318 319 319 320 320 321 322 322 322 322 322 322 323 324 325 325 325 325 324 325 325 326 326 327 328 329 329 330 330 330 331 331 331 332
329 325 318 315 315 315 316 316 317 317 317 317 316 316 316 316 316 315 316 317 317 317 317 315 314 315 317 314 310 311 316 318 318 318 318 318 318 318 319 318 319 318 318 317 316 316 316 316 316 316 316 317 318 318 319 319 319 319 319 319 320 320 321 322 323 323 323 323 323 323 324 325 325 326 327 328 329 329 330 330 330 331 331 331 332
324 319 316 314 315 316 316 316 316 316 316 316 316 316 316 316 316 316 317 317 317 316 316 314 314 316 315 312 310 314 318 318 317 318 318 318 318 319 319 319 319 318 317 317 316 315 315 315 315 315 316 316 317 317 317 317 317 317 318 318 319 319 320 321 322 322 322 323 323 324 325 325 326 327 327 328 329 329 329 330 330 331 331 331 331
320 317 316 315 315 316 316 316 316 316 316 316 316 316 316 317 317 317 317 316 315 315 315 314 315 316 314 312 312 316 317 317 317 318 318 318 318 319 319 319 318 318 317 317 316 315 314 314 314 314 315 315 315 315 316 316 316 317 317 318 318 319 320 321 322 323 323 324 324 325 326 326 328 328 329 329 329 329 329 330 330 331 331 331 331
319 317 317 316 316 316 316 315 316 316 316 316 316 316 316 317 317 317 316 315 314 315 314 314 315 315 313 312 314 316 316 316 317 317 317 318 318 319 319 319 318 317 317 317 316 315 314 314 314 314 314 315 315 315 316 316 316 317 317 318 318 319 321 322 323 323 324 324 325 326 327 328 329 330 330 330 330 330 329 329 330 330 331 331 331
321 318 317 317 316 316 316 316 316 315 315 315 315 316 316 317 316 315 314 314 314 314 313 313 313 313 312 313 315 315 315 316 317 317 317 317 318 318 319 318 318 317 317 317 317 316 315 315 315 315 315 315 316 316 316 317 317 318 318 319 319 320 322 322 323 324 325 326 327 328 329 330 330 330 330 329 329 329 330 330 330 330 330 331 331
320 319 319 319 317 316 316 316 316 315 315 315 315 316 316 316 315 314 314 314 314 313 311 310 310 311 312 314 315 315 315 316 316 316 317 317 317 318 318 318 317 317 317 317 317 317 317 317 317 317 317 317 317 318 318 318 319 319 320 320 321 321 322 323 324 325 327 328 328 329 329 330 330 330 330 329 328 328 328 329 330 330 330 331 331
319 320 321 320 317 316 316 316 315 315 315 315 315 315 315 314 314 314 314 313 313 311 310 309 310 311 313 314 315 315 316 316 316 316 316 317 317 318 318 317 317 317 317 317 318 318 318 319 319 319 320 320 320 320 320 320 321 321 321 321 322 322 323 324 326 327 327 327 327 327 327 328 328 330 331 330 329 327 326 327 327 327 329 331 331
321 321 320 319 316 315 316 316 315 315 315 314 314 314 314 313 313 314 314 313 312 311 310 309 311 313 314 314 315 315 315 315 315 315 315 315 316 317 317 317 317 317 317 317 318 318 319 319 320 320 320 320 320 320 321 321 322 322 322 323 323 324 325 326 327 327 326 325 325 325 325 326 327 329 330 330 329 327 326 325 324 324 326 329 331
323 321 320 318 316 315 316 316 315 314 314 313 313 314 313 312 313 313 313 313 312 310 309 310 312 314 314 314 315 315 314 314 314 314 314 314 315 316 316 316 316 316 317 317 317 318 318 319 319 320 320 320 321 321 321 321 322 322 323 323 323 324 326 327 326 325 324 323 323 323 324 326 327 328 328 329 329 328 326 324 323 323 324 326 330
324 323 320 318 315 315 315 315 314 314 313 313 314 314 312 311 312 313 313 312 311 310 309 310 312 314 314 315 315 315 314 313 313 313 313 313 313 314 315 315 315 315 316 317 317 317 318 318 318 319 319 320 320 321 321 322 322 322 322 321 321 323 325 326 325 324 323 321 321 322 323 324 325 325 326 326 326 325 324 323 323 322 322 323 327
326 323 320 316 315 316 315 314 314 314 313 313 314 313 311 312 313 313 312 312 311 309 308 310 312 313 314 315 315 314 313 312 312 312 312 312 313 313 313 314 313 314 315 316 316 317 317 317 317 317 317 318 319 320 321 323 323 321 320 321 322 324 325 324 324 323 321 319 320 321 322 322 322 323 323 323 321 320 321 321 321 321 321 322 324
324 320 317 315 315 315 315 314 314 314 313 313 314 312 311 312 313 312 312 312 311 309 309 310 312 313 314 315 315 314 311 310 311 311 311 311 312 312 312 312 312 312 313 314 315 316 316 316 317 317 316 316 318 321 323 324 324 323 322 323 325 325 324 324 323 320 318 317 318 319 319 319 319 319 320 320 319 318 318 318 319 320 320 321 323
319 318 317 316 315 315 315 314 314 313 313 314 314 312 311 312 312 311 312 312 310 309 310 310 311 313 314 315 315 313 310 309 310 310 310 311 311 311 311 311 311 312 313 314 314 315 316 316 316 317 316 315 317 321 324 324 324 324 324 325 325 325 324 323 320 318 316 316 316 316 316 316 317 317 317 317 317 317 317 317 317 318 318 320 323
318 318 317 315 315 315 315 314 313 313 313 314 313 312 312 312 312 311 312 311 310 309 310 310 311 312 314 315 315 313 309 308 309 309 309 310 310 310 311 311 311 312 312 313 313 315 315 315 316 316 315 314 318 322 324 324 324 325 325 325 325 324 323 320 318 315 315 315 315 315 315 315 315 315 315 315 316 316 316 316 317 317 319 321 322
319 317 316 315 315 315 315 314 313 313 313 314 313 312 312 312 312 311 312 311 310 310 310 310 310 311 313 314 314 312 308 307 308 308 309 309 310 310 310 311 312 312 313 313 313 314 315 315 316 316 314 314 318 323 324 323 324 325 325 325 325 324 321 319 316 314 314 314 314 314 314 314 314 314 315 316 316 317 317 317 318 318 319 320 319
320 317 316 316 315 314 314 314 313 313 314 313 312 312 312 312 311 311 311 311 310 310 310 310 310 310 312 313 313 310 307 307 307 307 308 309 309 309 310 311 312 313 313 314 315 315 315 316 316 316 315 315 318 322 323 323 323 323 323 323 323 322 319 317 315 314 313 313 313 313 313 313 314 314 315 317 318 319 318 318 318 318 318 317 316
Wind_Speed
13 12 13 13 12 11 8 6 6 4 2 2 0 3 5 3 4 6 2 0 1 2 2 2 2 2 2 1 3 4 5 5 5 5 7 8 9 9 9 9 10 12 13 12 12 12 12 12 12 12 12 13 14 15 15 15 15 15 14 12 12 13 16 17 10 9 21 27 24 24 26 24 23 23 21 19 17 16 17 18 19 20 21 22 23
13 13 13 12 11 9 8 7 6 4 3 2 1 2 3 2 2 1 1 2 2 2 2 2 2 2 4 5 5 5 6 6 6 7 9 9 9 9 10 10 11 12 13 12 12 11 10 10 11 12 13 15 17 17 17 16 16 16 15 14 12 12 11 11 12 9 14 22 23 22 23 22 22 23 21 19 18 17 17 17 18 19 19 20 21
12 13 13 11 9 9 9 8 6 5 2 2 2 1 3 2 1 1 2 2 2 2 2 3 5 7 8 7 7 7 7 6 7 8 10 11 11 11 11 11 12 13 12 11 10 9 8 9 11 12 14 18 20 20 18 17 16 16 17 16 13 12 10 8 8 8 10 15 18 17 17 17 17 18 19 19 19 17 17 17 17 19 19 20 21
14 14 13 10 8 10 10 7 6 5 2 0 1 2 4 2 2 3 3 2 3 4 5 7 8 10 10 9 8 8 9 10 9 9 11 12 13 13 13 14 14 15 15 12 10 10 10 11 12 14 16 19 21 21 19 18 18 17 18 18 15 13 10 8 8 7 8 10 12 12 12 12 13 13 14 15 16 16 16 16 17 19 20 21 22
14 13 11 10 8 8 8 7 6 4 2 1 3 3 3 3 4 5 5 6 7 8 9 10 11 11 11 10 10 10 11 11 12 13 13 14 13 14 14 15 15 16 17 15 12 11 12 13 14 14 16 18 20 20 19 18 19 19 19 18 17 15 14 13 11 9 9 10 11 11 11 11 12 12 11 12 13 14 14 15 17 19 21 21 21
14 12 11 10 9 6 6 7 5 3 2 3 3 3 3 5 6 7 8 9 10 10 11 11 11 11 11 11 12 12 13 13 14 14 15 15 15 14 15 14 14 15 16 15 15 14 14 14 14 14 15 17 19 19 18 18 19 20 20 20 20 19 18 16 14 11 10 10 11 11 11 10 11 13 12 12 13 14 15 16 16 17 19 20 20
14 13 12 10 9 7 6 6 4 3 3 4 4 4 6 7 8 8 9 9 10 11 12 12 12 12 13 13 14 14 14 14 14 14 15 16 15 15 16 16 15 14 14 15 15 15 14 14 14 14 15 16 17 17 17 19 19 20 20 21 21 21 20 19 17 13 11 11 11 11 12 11 11 13 14 14 14 15 15 16 17 17 17 17 18
15 15 13 11 10 9 7 6 4 4 4 5 5 7 8 9 9 9 9 10 11 12 12 13 13 13 14 14 15 15 15 15 15 16 17 16 16 17 18 18 17 16 14 14 14 14 14 14 14 14 14 15 16 16 17 18 20 20 21 20 20 20 20 19 18 15 13 12 12 12 13 13 13 13 14 14 13 14 14 15 16 17 16 16 17
16 16 14 12 11 10 8 7 6 5 5 6 6 8 9 9 9 9 10 11 11 11 12 13 12 13 13 14 14 15 15 15 15 16 16 15 14 15 16 16 16 16 14 13 14 14 14 15 15 14 15 16 16 17 18 18 19 20 20 19 19 19 19 19 18 16 15 13 13 13 12 12 13 13 13 13 13 13 14 14 14 16 17 17 17
17 16 14 13 12 12 10 9 8 7 6 7 7 8 8 8 8 9 10 10 10 10 10 11 11 13 14 14 14 14 14 14 14 13 12 11 10 11 12 12 13 13 14 14 14 14 14 15 15 15 16 17 17 18 19 18 18 18 18 18 18 17 18 18 17 17 16 14 13 13 11 11 14 15 14 14 14 13 15 15 15 16 16 15 16
19 18 16 14 12 13 13 11 9 7 7 7 7 7 8 8 9 9 10 10 10 10 11 12 13 13 14 14 14 13 14 13 11 10 11 11 12 13 12 12 11 11 12 13 14 14 15 15 16 16 18 19 20 20 19 19 19 18 18 17 16 15 15 16 17 16 15 14 14 13 11 12 15 17 17 16 16 15 15 15 14 14 13 10 10
20 19 17 15 13 13 13 12 9 7 7 7 6 7 7 8 9 9 9 10 10 11 12 12 12 12 12 13 12 12 12 11 10 12 13 14 14 14 14 13 12 12 12 13 14 15 16 17 18 18 19 20 20 20 20 19 18 18 17 18 17 16 14 14 15 15 15 15 15 15 14 14 16 18 18 18 17 16 14 14 14 14 14 12 11
22 19 17 16 14 13 13 12 9 8 7 7 6 6 7 7 7 7 8 9 10 10 10 10 11 11 10 10 11 11 12 12 13 14 15 14 14 13 13 13 12 12 13 13 14 16 17 18 19 20 21 21 21 19 18 18 17 18 19 20 20 18 15 13 13 14 14 15 16 16 16 16 17 18 18 18 19 18 16 16 16 16 16 16 16
22 20 18 17 15 13 12 11 10 9 7 6 5 6 6 5 5 6 6 6 7 8 9 10 10 9 10 11 12 13 13 13 13 13 13 14 14 14 13 13 13 13 12 13 14 15 17 19 20 21 22 22 21 19 18 18 18 19 20 19 18 17 15 14 13 14 14 14 16 17 17 17 18 18 18 19 20 21 19 19 20 18 18 18 19
24 21 19 17 15 14 13 10 9 8 5 4 4 3 2 3 4 4 4 5 7 8 9 10 10 10 11 12 13 13 13 13 12 13 13 14 15 14 14 13 13 13 13 14 15 16 17 18 19 20 21 21 20 18 18 19 19 19 17 16 16 15 14 14 14 13 13 13 15 16 16 16 16 16 17 17 19 21 22 22 22 20 19 18 19
19 16 14 13 12 11 10 10 9 7 4 4 3 1 2 3 4 4 5 7 8 9 10 10 10 11 11 12 12 13 13 12 12 13 13 13 13 14 14 13 14 15 15 16 16 16 16 16 17 17 18 19 19 18 18 18 16 15 14 13 14 14 14 15 14 12 11 12 14 14 14 14 14 14 14 15 15 16 18 20 20 18 17 17 17
12 13 13 11 9 5 6 8 7 5 4 3 1 1 3 4 4 5 7 8 9 10 11 10 10 11 12 12 12 13 14 13 12 11 10 11 12 12 11 12 13 14 15 15 15 15 15 15 15 16 17 18 17 17 17 16 13 12 12 12 14 16 17 17 16 14 14 15 16 16 16 17 18 18 18 18 17 17 17 16 17 16 15 13 11
15 17 15 11 9 7 7 9 7 4 3 2 2 3 3 4 5 7 9 10 11 12 12 11 11 11 12 12 13 13 13 11 10 9 9 10 12 11 10 12 13 14 14 14 15 15 15 16 16 16 17 17 16 16 16 16 14 13 14 14 16 18 21 21 19 20 20 20 21 22 23 23 24 24 24 23 22 22 20 19 19 18 16 12 11
17 16 12 9 8 8 8 9 5 3 2 1 3 3 4 5 7 8 10 11 12 14 14 12 12 11 11 12 12 11 11 11 11 11 11 12 13 11 10 11 13 14 15 16 17 17 17 18 19 18 18 17 17 17 17 17 17 17 17 17 17 21 24 23 22 23 24 25 26 27 27 28 28 28 28 28 27 26 26 25 23 22 19 17 16
15 12 9 7 7 7 7 6 3 1 1 3 4 4 5 6 6 8 10 11 13 14 14 13 13 12 11 10 9 10 12 14 14 12 13 14 12 10 10 11 12 13 15 17 18 19 19 20 20 19 19 19 19 20 20 20 21 21 21 19 20 23 25 24 23 24 25 26 28 29 29 30 30 30 30 31 31 30 30 29 28 27 25 22 20
13 11 8 8 9 9 7 3 1 1 2 3 4 5 6 7 9 11 13 14 15 15 14 13 12 11 10 9 10 12 14 15 14 14 15 15 14 12 12 13 13 14 16 18 19 20 21 22 22 21 21 21 21 22 23 24 24 24 25 25 25 26 26 25 25 25 25 26 28 29 29 29 29 30 30 30 31 31 31 30 29 30 29 27 25
9 9 9 10 10 7 3 2 1 0 1 3 5 8 10 12 13 12 11 11 11 11 10 10 9 9 10 11 13 15 15 15 15 16 16 17 16 16 15 16 16 17 18 20 21 22 22 23 24 23 23 23 24 25 27 28 28 28 29 30 31 29 26 26 26 26 26 26 26 27 28 28 29 29 28 28 29 30 29 29 28 29 30 30 29
8 10 10 9 6 3 2 2 1 1 2 6 9 11 11 8 6 7 7 8 9 8 8 8 9 11 13 15 16 17 17 17 16 16 17 17 18 18 17 18 19 20 21 23 24 25 24 25 25 25 25 26 27 29 30 31 31 32 34 34 32 29 26 25 26 26 26 26 25 25 27 27 27 27 27 27 28 28 27 27 28 28 29 31 32
10 9 7 4 2 0 2 3 4 5 6 8 7 5 6 8 9 10 9 9 9 9 9 11 12 14 16 18 19 20 19 18 16 17 17 17 17 17 18 20 22 24 25 26 27 27 26 26 26 27 28 30 31 32 33 33 33 33 33 32 29 26 25 26 26 26 25 24 23 23 25 26 26 26 27 27 27 27 27 28 28 29 31 32 33
8 6 3 1 1 4 6 6 7 7 5 3 5 9 10 11 12 11 10 10 11 12 13 14 16 17 19 20 22 22 21 19 18 18 18 17 17 17 18 22 25 26 26 27 27 27 27 27 27 29 31 31 30 29 29 29 29 29 29 28 27 27 27 26 26 24 23 22 22 23 24 26 27 27 28 28 27 27 27 27 28 28 29 31 32
5 4 3 3 4 5 5 6 6 6 7 7 9 10 12 13 13 11 11 12 13 14 15 17 18 19 20 21 22 23 22 21 21 20 19 18 19 20 22 25 27 27 27 28 27 27 26 26 27 29 29 27 25 24 24 23 23 23 24 24 25 25 25 25 24 22 22 22 22 23 25 27 27 27 27 27 26 27 27 26 26 26 26 27 28
5 6 7 8 9 9 10 11 10 10 10 9 9 11 13 14 14 12 12 13 13 15 17 18 19 20 21 21 22 22 21 21 21 20 19 20 22 23 25 27 28 28 29 29 28 27 26 25 27 27 25 23 22 21 20 20 20 20 20 20 20 21 21 22 22 23 23 24 24 24 26 26 25 25 25 24 25 26 26 24 24 24 25 25 24
9 10 11 11 11 10 9 9 10 10 10 10 10 12 13 14 13 11 10 12 15 18 19 19 19 19 19 20 19 19 20 20 19 19 19 20 22 25 27 29 29 30 31 31 29 27 26 26 27 25 23 22 21 20 18 18 18 19 19 18 18 19 19 20 21 22 23 23 23 23 24 24 24 24 24 24 25 26 25 23 22 23 24 23 20
12 13 12 12 11 9 8 8 9 9 9 9 10 11 11 10 9 9 11 13 15 17 17 16 15 16 16 17 16 17 19 20 18 18 19 20 22 25 28 30 32 32 31 30 29 27 26 25 24 22 21 21 19 18 17 18 17 18 18 17 17 17 17 17 18 20 21 21 21 21 22 22 23 23 23 23 26 27 26 23 22 23 23 21 19
12 11 10 10 10 8 7 7 8 8 8 9 9 9 9 8 8 11 13 12 10 10 12 13 15 16 17 18 17 17 19 19 17 17 19 21 23 25 29 32 33 33 30 28 26 24 22 22 21 21 20 20 18 17 18 17 16 16 17 17 16 16 16 17 19 20 21 20 21 22 22 22 23 23 22 22 24 25 24 22 23 23 22 20 18
9 8 8 8 8 6 6 6 7 7 8 8 8 8 9 10 11 11 11 10 10 11 12 14 16 18 20 21 20 18 17 16 16 18 20 22 25 27 31 33 33 31 28 25 24 23 21 19 19 19 19 19 18 18 17 16 14 15 16 18 17 17 17 18 19 20 21 21 22 23 23 23 23 24 23 22 22 22 21 20 21 22 21 20 18
8 7 7 7 6 5 4 5 6 7 7 7 7 8 11 13 14 12 10 11 13 12 13 16 17 19 21 21 19 16 15 16 18 20 21 24 27 29 32 34 32 28 24 22 22 21 19 17 17 18 18 19 18 17 15 15 15 16 17 18 18 18 18 19 20 21 22 22 22 22 21 21 22 23 23 21 20 20 19 18 19 20 20 20 19
6 5 5 6 5 5 5 5 5 5 6 7 9 11 12 13 14 13 12 13 12 12 14 17 18 20 22 17 11 13 18 20 20 21 23 26 30 31 32 33 30 25 21 19 19 18 17 16 16 16 17 16 16 15 14 15 16 16 16 17 17 18 20 21 23 23 23 22 22 21 21 21 21 22 22 21 20 20 19 18 19 19 18 18 18
3 4 6 6 5 6 5 5 4 5 7 9 9 9 10 11 11 12 13 14 14 16 18 18 18 21 19 11 9 16 22 22 20 22 26 29 31 32 33 32 27 22 18 17 17 17 16 15 15 15 14 14 14 14 14 15 16 16 16 16 17 19 21 22 22 22 21 21 21 21 22 22 22 22 21 21 20 20 19 18 18 18 17 17 17
3 7 6 6 7 6 5 4 5 6 7 7 7 7 8 10 10 10 12 15 17 20 21 19 21 20 14 10 16 23 24 22 22 24 28 30 32 32 31 27 24 21 19 17 16 15 15 14 14 14 14 15 15 14 14 14 15 15 16 17 18 19 21 21 21 21 22 22 23 23 24 23 23 22 22 22 20 19 18 18 18 18 18 17 17
7 9 7 7 7 6 5 5 6 7 7 6 6 7 8 9 9 11 14 17 19 20 19 20 21 17 12 15 23 26 24 24 25 26 27 31 32 31 27 24 23 22 20 19 18 16 14 13 14 14 15 15 15 14 15 15 16 16 17 18 19 20 21 21 22 23 24 25 25 25 24 24 23 22 21 21 21 20 19 18 18 19 20 19 18
10 8 8 8 7 5 5 6 6 7 7 6 6 7 8 9 12 14 16 18 18 17 17 19 19 14 15 22 27 26 26 28 27 26 28 31 31 29 26 24 23 22 20 20 19 16 14 14 14 14 15 14 14 15 16 16 16 17 17 18 19 21 22 22 23 24 25 25 24 24 23 23 23 22 21 20 20 20 20 20 20 20 20 20 19
9 8 8 7 6 4 5 6 6 7 7 7 7 7 9 12 14 15 15 15 16 16 17 18 15 13 17 24 27 27 28 29 28 28 30 31 30 28 26 24 23 22 21 19 17 15 14 14 14 14 14 14 15 16 16 16 17 17 18 20 22 23 23 23 24 25 25 25 25 25 24 23 22 21 20 19 19 19 19 20 20 19 19 19 19
8 7 6 5 4 3 3 5 6 6 7 7 8 9 12 13 14 13 13 14 15 16 17 16 14 14 19 24 27 28 28 27 26 27 29 29 29 28 26 25 25 23 22 20 17 15 14 14 15 15 15 16 16 17 17 17 18 19 20 21 22 24 24 24 25 26 26 26 26 25 24 22 20 19 18 18 18 18 18 19 19 19 18 18 18
7 5 3 2 2 2 2 3 5 5 6 8 9 11 12 12 12 12 13 14 15 15 16 16 15 16 21 24 26 27 26 24 24 26 27 29 30 28 27 27 26 25 23 21 19 18 17 16 16 17 17 17 18 18 19 19 20 21 22 21 22 24 24 25 26 26 26 26 25 24 23 22 21 19 19 18 17 17 17 17 18 19 20 19 19
6 4 2 2 1 2 1 2 4 5 7 9 10 11 11 11 12 12 13 13 13 14 17 18 17 18 21 24 25 26 24 23 24 26 27 28 29 27 27 27 26 25 24 23 21 21 20 18 18 18 18 18 19 20 21 21 22 23 23 23 23 24 24 25 25 25 25 25 24 23 24 23 22 21 19 17 16 15 15 15 15 16 18 20 20
5 3 3 3 2 2 1 1 4 6 8 9 10 11 11 12 12 13 13 13 13 15 18 20 19 20 22 24 25 26 26 25 26 27 28 28 28 27 27 27 27 26 25 23 22 22 21 20 19 19 19 21 21 22 22 23 23 24 24 25 25 25 25 25 24 23 23 23 23 23 23 23 22 22 21 18 15 14 13 13 14 14 15 17 20
3 3 2 1 3 2 1 1 4 7 9 10 11 11 11 12 14 13 13 13 14 16 19 20 20 20 22 24 26 28 27 26 27 29 29 29 29 28 27 28 27 26 25 24 23 22 21 21 21 21 21 22 23 22 22 23 23 23 24 24 25 25 24 23 21 21 22 23 23 23 22 22 22 22 21 19 17 14 12 11 11 12 13 13 17
3 5 3 2 3 3 3 3 5 8 9 10 11 11 12 13 14 14 13 13 13 16 19 19 19 21 22 25 27 28 27 26 27 29 30 30 29 28 28 28 28 26 26 26 25 24 23 22 22 22 21 22 23 23 21 20 20 20 21 23 24 22 19 18 19 21 23 24 24 23 23 22 22 22 21 20 17 14 11 10 10 9 11 12 12
5 6 3 2 4 5 5 5 7 8 9 11 12 11 12 14 14 14 13 12 13 16 19 19 19 20 22 24 26 27 27 26 27 28 29 30 30 29 28 28 28 27 26 26 26 25 24 24 24 25 24 24 25 25 24 20 18 17 18 20 20 18 16 18 21 23 24 24 23 22 22 23 22 20 17 14 11 9 9 9 9 9 10 11 10
4 4 1 2 4 5 5 5 6 8 9 11 11 11 13 14 14 13 13 12 13 17 19 19 19 20 21 22 24 26 27 27 27 28 29 30 30 30 29 28 28 27 26 25 25 25 25 25 25 26 27 27 27 28 26 23 20 18 17 17 15 15 16 19 22 24 24 23 20 19 21 21 20 17 14 10 7 7 7 7 9 10 10 9 9
2 1 2 4 5 5 5 5 6 7 9 10 9 10 13 13 13 13 13 12 13 17 18 18 19 20 21 21 23 25 27 27 27 27 29 30 30 30 30 29 28 27 26 24 24 24 25 25 25 26 28 29 29 29 28 25 23 21 18 15 14 15 18 20 22 23 23 21 18 17 19 18 16 14 12 10 8 7 7 7 9 10 9 8 8
2 2 4 5 4 3 4 5 6 7 8 9 9 10 12 12 12 13 12 12 14 17 17 17 18 20 20 21 23 25 26 27 27 28 29 30 30 30 30 29 29 28 26 25 24 23 23 24 24 24 27 30 31 30 29 26 24 21 19 16 16 18 20 21 21 22 21 18 17 16 16 16 15 13 12 11 9 9 8 8 9 8 7 7 5
4 3 4 5 3 3 4 5 6 7 8 8 8 10 11 11 12 12 12 12 15 17 16 16 18 19 19 20 23 24 25 26 27 28 29 29 30 30 30 29 29 29 27 26 25 23 22 23 23 23 25 29 31 30 28 26 24 21 20 19 19 21 21 20 20 20 19 17 17 16 16 15 15 14 13 13 11 9 7 7 7 7 5 5 9
3 4 4 4 3 3 5 6 7 8 8 8 8 9 10 11 12 12 11 12 14 16 15 16 18 19 19 20 22 24 25 25 25 27 28 29 29 30 29 29 30 29 28 27 25 24 22 23 24 24 25 28 30 29 27 26 25 23 22 21 21 21 22 21 20 19 19 18 18 18 18 17 17 17 16 13 8 5 5 5 6 7 11 16 21
2 4 4 3 3 4 5 6 7 8 7 7 8 9 10 11 12 12 11 11 13 14 14 15 17 18 18 19 21 23 23 23 24 25 27 28 29 29 29 29 29 29 28 27 26 25 24 24 25 25 25 27 29 28 26 25 25 24 23 23 23 22 22 22 20 19 18 19 19 20 20 20 20 20 19 15 12 10 11 13 16 20 24 27 27
Wind_Direction
171 175 179 180 178 177 173 168 167 156 142 150 99 335 350 21 145 160 155 218 310 294 266 315 341 174 179 290 289 303 306 293 283 281 288 301 310 313 311 308 310 312 313 310 310 316 321 327 333 336 340 341 339 337 334 330 326 325 327 321 309 298 275 255 241 258 272 275 278 283 288 290 289 289 289 283 276 274 276 276 277 276 273 272 272
180 182 182 181 178 171 159 154 159 154 162 223 284 3 18 45 149 184 298 308 296 280 257 274 280 286 304 294 278 288 297 292 292 291 288 294 305 308 308 312 316 316 315 312 310 313 317 321 329 335 337 335 332 330 329 330 328 324 326 330 328 331 324 286 263 255 270 279 284 289 294 295 294 293 291 284 280 281 281 279 279 278 276 274 272
172 173 172 167 160 159 162 163 167 170 184 225 224 329 343 324 273 296 317 324 322 318 316 312 307 311 316 306 287 289 300 305 306 297 289 294 301 302 303 308 313 314 311 313 316 314 312 315 322 327 331 331 328 324 320 320 324 322 319 321 322 323 332 326 295 272 266 279 289 295 300 303 300 296 290 285 285 286 284 284 283 281 279 276 273
159 163 166 162 153 157 166 171 177 184 188 230 246 310 330 319 297 308 310 307 311 318 317 313 311 310 311 309 302 303 309 310 310 307 302 301 300 299 302 303 305 306 302 302 308 302 295 301 309 315 322 327 327 323 317 313 315 317 315 315 316 312 308 310 309 297 281 284 296 304 309 310 306 301 295 291 290 289 289 289 286 281 279 276 275
164 165 166 166 163 164 172 179 184 190 203 287 296 299 310 313 311 311 308 307 307 311 312 311 312 312 312 311 307 306 309 307 308 309 308 308 305 301 303 302 302 303 298 294 291 282 279 288 298 308 318 325 325 320 316 314 314 313 311 308 306 306 301 295 296 297 287 283 291 299 303 304 304 304 304 303 301 298 295 293 288 282 279 277 275
170 166 166 171 175 173 172 181 193 214 242 272 289 290 296 307 312 311 311 314 316 318 321 322 324 323 320 317 313 310 309 307 307 308 309 310 307 303 304 305 307 305 296 287 278 270 272 284 296 309 318 321 320 316 312 314 316 314 310 305 302 300 296 293 292 289 283 280 282 287 291 292 296 298 299 304 306 305 302 297 293 287 281 278 278
175 173 175 181 188 189 187 195 211 240 254 263 275 287 299 306 312 317 320 323 326 327 329 329 329 327 322 318 316 314 313 311 309 308 309 307 302 298 300 303 306 305 294 281 271 266 272 285 298 308 313 313 311 310 309 312 315 314 311 309 307 302 295 291 289 285 280 278 277 279 282 283 286 289 293 299 300 297 296 291 288 289 286 284 284
179 179 183 189 196 200 203 211 225 234 242 261 280 296 309 314 317 324 326 325 326 325 326 326 324 322 319 317 317 316 314 312 309 308 307 304 299 297 298 299 299 298 290 277 267 266 274 287 296 301 304 304 303 303 304 306 308 308 307 310 312 308 301 295 292 287 281 277 275 278 281 281 282 283 286 290 288 287 289 283 279 285 291 291 290
182 182 186 192 199 202 205 211 219 227 244 267 285 299 314 321 321 321 321 321 323 322 321 321 320 321 320 319 319 319 317 317 318 317 313 309 306 305 305 305 303 297 288 277 273 273 279 287 291 293 297 297 296 295 297 298 299 300 301 305 308 308 305 300 295 292 288 283 280 281 279 277 279 280 278 278 277 282 289 284 276 282 289 288 286
186 186 187 193 202 206 205 207 213 225 248 266 281 300 314 319 318 318 319 319 320 319 319 319 321 322 323 323 323 323 324 327 329 326 322 321 323 322 318 317 313 304 294 288 284 284 286 288 289 291 294 294 293 295 296 295 294 295 295 297 299 301 301 297 293 292 290 286 284 285 280 275 279 279 275 276 280 281 285 286 286 289 289 281 280
190 192 192 196 205 207 203 204 213 230 248 260 274 294 305 312 315 318 320 320 320 319 321 323 325 325 325 327 329 332 334 335 333 332 335 337 336 334 329 323 316 306 297 292 289 288 289 290 290 292 296 297 298 300 299 296 294 294 294 294 294 293 291 288 287 287 283 278 280 283 279 277 283 285 281 281 283 280 280 283 287 291 287 273 273
194 195 195 197 201 200 201 205 213 226 239 251 268 287 301 309 313 314 316 318 319 321 324 327 329 331 332 335 339 344 346 344 339 337 336 335 334 334 331 324 316 307 298 292 290 291 291 292 293 295 297 300 302 302 300 298 296 296 296 297 296 293 287 282 281 281 278 273 273 275 274 276 284 288 287 285 285 283 279 277 278 282 281 271 264
198 197 198 201 204 202 203 207 215 227 238 247 264 289 300 301 305 311 316 319 321 325 331 334 336 338 340 342 342 342 342 340 336 334 332 329 329 329 326 322 316 310 303 297 294 294 294 295 296 297 298 300 302 301 299 297 295 294 295 295 293 290 286 282 277 276 277 275 270 270 274 277 279 284 290 291 289 285 280 277 277 275 272 268 267
198 199 199 200 205 208 206 211 224 228 231 246 267 287 292 292 308 319 323 328 331 334 337 336 336 336 335 335 336 335 336 337 336 337 335 332 328 325 321 317 311 307 305 301 298 295 294 295 297 298 300 302 303 302 299 295 292 292 292 290 289 287 284 282 278 274 274 275 274 275 281 283 280 284 290 290 286 283 280 281 283 278 272 270 271
200 200 200 201 204 204 202 213 225 219 221 257 271 278 289 309 326 327 329 337 338 336 332 325 321 323 325 330 335 336 339 341 340 339 338 336 333 330 325 317 310 306 304 302 300 297 296 296 298 299 300 301 301 301 298 294 292 290 287 285 285 284 280 277 277 276 275 275 275 277 281 282 282 285 288 286 283 281 281 281 281 279 277 277 276
193 192 196 200 200 200 207 214 208 198 227 262 254 256 340 337 333 327 329 333 329 322 316 312 313 319 325 331 333 334 336 339 338 336 336 336 336 335 331 323 315 309 307 306 306 303 301 300 300 301 300 299 300 300 298 296 290 284 280 277 277 278 276 275 277 279 278 273 269 270 274 276 277 278 279 280 280 283 286 286 282 277 274 274 274
172 183 191 193 198 222 256 242 214 200 219 224 180 15 340 328 319 318 319 316 309 303 302 307 316 322 326 329 328 326 331 339 342 340 338 337 334 331 328 323 316 312 311 311 310 308 305 304 303 303 302 301 302 301 298 293 283 278 277 277 279 281 280 280 284 286 285 279 275 275 278 279 278 277 276 275 276 283 289 289 286 281 272 266 264
177 189 185 184 195 209 239 244 231 195 174 153 34 343 319 308 305 313 313 303 296 296 298 305 317 323 324 325 326 327 333 344 349 341 335 332 328 322 317 315 313 311 310 310 308 306 302 300 299 298 296 297 298 298 295 289 282 279 278 279 284 285 283 286 292 294 293 291 288 287 286 284 283 282 280 277 276 279 281 280 280 278 272 264 264
182 188 180 182 189 186 200 214 201 147 130 16 325 299 296 306 309 313 308 298 297 299 298 300 310 319 323 327 333 339 343 345 341 330 327 331 328 321 316 317 318 317 316 313 310 309 306 304 303 300 295 293 291 290 287 282 277 274 272 274 278 280 283 288 293 294 294 294 294 292 290 289 287 286 284 280 277 276 275 274 274 269 264 262 263
166 167 170 178 172 163 174 183 166 118 314 306 296 285 296 308 312 312 304 299 301 301 297 297 304 316 328 336 344 348 343 340 335 325 323 329 330 324 317 317 322 324 321 316 312 310 310 309 309 308 303 298 293 290 284 278 273 271 269 269 272 277 284 288 288 289 290 290 291 291 290 289 287 285 284 282 279 277 274 272 268 263 259 259 259
149 144 150 160 155 154 164 174 180 329 317 308 296 295 306 308 303 301 301 304 309 309 305 305 310 324 339 346 347 346 344 342 336 325 320 322 323 319 310 307 313 318 317 314 311 308 308 309 309 308 305 301 297 293 288 281 276 271 268 271 276 280 283 284 283 285 285 285 287 287 285 284 281 279 278 276 276 275 273 269 265 260 257 254 252
140 136 142 148 147 148 174 234 277 349 340 313 306 308 310 306 302 304 311 323 333 332 327 326 329 337 344 345 344 343 343 342 336 326 321 320 318 313 307 306 310 313 310 308 307 306 307 306 305 304 303 301 298 295 291 287 280 274 272 277 281 282 281 279 280 282 281 280 281 281 280 278 276 274 273 271 270 271 269 267 264 260 259 255 252
139 136 136 139 139 150 250 272 286 295 307 311 312 315 321 328 344 2 11 13 8 1 353 348 341 336 338 340 339 336 334 333 331 327 325 323 318 311 307 308 312 311 306 303 304 305 306 304 303 302 301 299 296 292 289 286 282 278 277 278 279 280 279 278 278 278 277 276 275 273 273 273 271 270 270 268 269 269 268 267 265 261 260 258 255
135 125 123 132 139 277 308 309 295 285 295 313 327 358 35 48 46 37 29 23 16 8 359 350 341 334 332 332 330 329 327 326 326 328 328 326 321 313 309 311 314 313 308 304 303 304 303 302 302 301 300 298 296 293 288 283 281 279 279 279 278 277 278 277 275 274 272 271 269 267 268 268 267 267 269 270 271 272 271 269 267 263 260 258 257
120 108 103 127 307 315 319 320 309 300 309 359 56 68 58 45 36 29 22 15 9 1 352 344 338 332 327 324 324 325 325 322 323 326 326 324 320 315 313 316 318 316 311 306 303 302 300 299 300 301 302 302 302 300 295 288 283 280 279 279 279 279 278 275 273 272 268 266 265 264 264 266 266 268 272 274 274 274 272 271 269 265 262 261 260
100 75 48 36 23 15 28 47 55 58 65 71 69 57 42 33 28 22 12 5 358 349 341 336 331 326 323 321 323 325 324 321 320 321 321 318 317 317 318 320 321 320 315 311 308 304 300 299 301 304 307 308 307 305 302 298 294 288 284 282 281 279 277 273 269 266 263 262 262 262 264 267 270 272 275 275 272 271 270 270 269 266 262 259 259
70 60 65 70 71 73 75 76 74 65 56 52 48 39 30 22 16 11 7 1 351 341 335 328 322 320 319 321 323 324 322 319 318 318 319 319 319 322 324 325 325 323 320 318 316 310 304 303 305 308 311 314 313 310 305 301 299 295 290 287 285 281 280 277 272 267 264 262 262 264 267 271 273 272 273 271 268 269 269 266 265 264 261 258 255
83 85 84 79 74 74 73 65 56 48 44 44 38 28 19 12 9 12 7 350 336 331 328 324 322 321 320 319 320 318 316 316 317 317 318 321 324 326 329 330 329 326 324 322 319 313 308 307 308 310 313 313 312 310 305 298 295 293 290 290 290 288 285 282 276 270 266 264 264 264 267 270 270 269 270 269 269 270 269 264 260 260 260 257 252
97 91 80 69 64 67 67 56 49 48 50 44 29 17 12 10 6 359 350 341 333 328 325 326 331 330 322 316 314 310 308 312 317 319 320 324 327 328 330 331 330 328 327 325 319 313 310 309 307 306 308 308 305 303 300 297 296 295 293 294 294 290 286 281 276 272 270 267 265 265 266 268 269 270 270 269 270 271 269 263 258 258 257 254 250
98 87 74 66 64 64 63 55 48 44 38 28 19 16 19 18 2 346 341 342 342 335 331 334 337 332 322 315 311 308 307 312 318 323 327 330 331 331 331 332 332 331 331 328 321 313 307 304 302 302 302 301 298 296 296 296 295 294 296 296 293 289 287 283 280 279 276 272 268 267 267 267 268 270 270 269 271 273 270 262 258 255 253 249 247
104 101 89 81 77 75 69 52 33 24 21 22 23 17 7 1 358 355 352 352 354 350 342 336 333 329 323 316 311 309 313 321 327 330 333 335 335 334 334 335 335 335 332 326 319 312 305 299 297 298 299 297 295 293 294 293 290 291 295 295 292 291 290 287 285 283 281 277 273 270 268 267 267 270 269 268 271 274 272 264 256 250 247 246 245
117 113 106 103 97 83 58 32 21 21 24 25 16 358 344 340 345 357 7 1 353 348 340 333 332 332 330 321 312 313 327 335 335 335 337 338 336 336 336 336 336 335 332 323 313 308 305 299 292 291 292 292 293 293 292 292 292 292 292 291 292 295 295 294 295 293 288 285 282 277 275 274 274 276 276 275 275 276 272 265 257 250 247 246 245
127 117 120 117 95 61 40 37 38 32 15 357 345 341 340 338 339 349 358 356 352 348 343 340 341 342 340 331 321 334 344 343 340 340 340 339 338 337 337 337 336 334 331 324 314 308 306 303 297 293 290 289 294 297 297 298 300 298 294 292 293 297 300 302 302 300 296 294 292 289 289 290 288 285 283 280 277 274 270 265 260 254 248 246 245
152 138 126 103 64 48 53 55 39 8 352 348 345 346 351 351 350 349 346 340 338 340 342 347 354 352 347 344 350 353 350 347 345 345 343 342 341 339 338 336 335 333 333 329 321 314 311 310 309 307 303 301 303 305 304 306 307 305 302 302 302 304 306 307 305 302 300 300 299 296 294 293 290 286 283 278 273 270 266 262 257 251 246 245 244
146 135 114 72 57 65 68 44 10 359 1 6 10 10 5 359 355 346 333 326 325 328 333 346 358 358 357 3 0 355 354 354 353 349 347 345 344 342 339 335 334 337 339 336 328 322 319 318 317 317 317 314 311 309 309 311 312 311 311 310 309 307 307 307 306 306 305 302 299 296 293 290 286 283 280 276 272 267 262 258 253 247 244 244 243
144 128 98 70 74 75 51 18 13 19 25 27 23 14 2 351 340 332 328 328 327 327 332 345 354 360 10 10 1 357 359 0 356 352 349 349 348 345 341 336 337 340 341 339 337 334 329 326 323 322 321 318 315 315 314 313 312 311 309 309 307 306 306 306 305 305 303 300 297 295 293 290 285 281 277 274 271 266 261 257 252 247 242 240 240
137 112 87 81 79 61 37 35 39 38 32 24 12 0 350 339 331 330 331 332 333 335 341 349 355 3 9 6 2 1 1 360 357 354 353 352 351 349 344 340 342 344 342 341 343 340 334 331 328 324 321 319 317 316 314 311 310 308 307 305 304 304 304 305 305 305 303 301 299 298 296 294 292 289 284 278 273 268 262 257 254 249 243 239 236
124 97 87 84 75 63 58 53 43 32 22 12 359 346 338 334 334 336 337 339 343 347 351 355 3 9 4 2 3 4 1 358 356 355 354 353 352 350 347 346 349 349 344 342 343 340 333 329 327 324 320 317 316 314 312 309 308 307 306 306 306 307 308 309 309 309 307 305 304 303 300 297 297 296 293 287 281 275 267 259 253 248 243 237 233
117 97 94 87 81 94 89 56 31 19 16 10 354 342 339 338 340 343 347 349 354 360 3 6 14 14 4 2 4 3 359 356 354 352 351 351 351 350 350 351 353 352 348 344 340 337 333 328 325 323 320 316 315 314 311 309 308 308 308 308 309 311 312 310 309 308 307 305 304 303 301 299 299 300 300 298 294 288 279 268 256 247 242 236 231
129 120 127 120 120 141 115 46 22 14 13 4 350 343 345 347 349 353 358 2 7 14 17 17 15 10 6 5 5 2 357 353 350 349 349 351 351 351 352 354 354 353 351 347 341 337 334 330 328 327 324 321 320 317 315 313 312 311 311 310 309 308 307 306 305 306 306 307 306 305 305 305 302 299 299 299 299 297 290 281 268 253 243 235 231
153 170 230 270 244 198 176 35 17 9 1 351 346 348 355 0 4 10 16 21 23 25 23 19 13 9 8 8 7 4 359 353 350 350 351 352 352 352 354 355 356 354 352 350 347 343 338 334 334 333 330 328 326 323 321 319 316 315 314 312 308 305 303 304 307 308 310 312 313 311 310 309 304 297 292 292 298 301 296 292 288 274 253 237 228
176 210 267 278 242 204 179 25 6 3 359 359 5 9 11 16 24 29 32 35 34 28 21 16 13 11 10 9 8 7 3 358 354 354 354 354 354 355 357 358 357 357 355 354 353 349 343 338 338 338 336 334 331 326 324 323 321 319 316 312 309 307 307 308 310 312 314 315 315 312 311 310 307 300 291 286 288 294 294 295 301 298 277 246 226
204 268 293 194 160 131 85 37 12 14 21 27 27 24 26 35 39 38 37 39 35 27 20 16 14 12 11 10 11 9 5 0 359 358 357 356 356 357 358 359 359 360 0 1 1 359 354 348 345 343 341 340 336 330 326 325 323 320 317 314 312 310 309 310 313 315 317 317 316 313 312 311 309 304 298 290 282 276 278 286 293 303 299 269 231
280 308 304 182 136 90 80 71 38 35 43 40 29 28 40 46 42 37 38 38 33 26 22 19 16 13 10 10 11 9 4 1 360 358 358 358 357 358 359 359 1 2 4 5 7 7 3 359 355 351 347 345 343 341 335 328 322 316 315 316 315 311 310 316 320 321 321 322 320 316 313 311 308 306 303 297 284 266 260 272 279 288 300 290 249
319 324 308 186 128 94 90 79 51 45 46 37 32 40 48 45 39 38 40 37 30 25 23 20 17 14 11 11 11 8 3 1 360 359 360 360 0 0 1 1 2 4 6 7 8 8 6 3 0 358 355 351 349 348 345 338 328 319 315 317 319 320 324 329 328 327 328 328 322 316 314 312 309 307 305 300 288 268 259 267 274 276 283 289 274
329 321 292 152 121 102 95 78 59 53 46 37 41 50 47 41 40 41 38 34 30 26 22 19 17 14 11 12 11 8 5 2 0 0 1 1 2 3 3 2 3 5 7 8 8 7 6 4 1 359 358 355 353 352 352 349 344 336 330 332 338 341 339 335 332 331 332 330 323 317 315 313 310 308 306 299 291 285 272 262 268 272 268 272 284
327 251 175 136 118 112 108 89 71 60 48 43 49 53 44 40 43 42 36 35 32 25 20 19 17 14 12 13 11 8 6 4 2 2 3 3 3 5 5 4 5 6 6 7 8 7 6 6 3 1 360 359 357 358 358 357 354 352 353 360 2 352 342 337 336 335 334 332 328 323 320 318 317 316 313 304 293 289 276 257 259 262 253 255 279
154 178 163 142 123 116 113 97 76 62 52 48 52 52 45 43 45 43 39 36 31 24 19 18 16 13 12 13 11 8 6 5 5 5 5 4 5 6 6 6 7 7 7 8 8 7 7 8 6 4 2 360 0 3 5 5 5 7 11 12 4 352 346 342 340 339 340 341 340 339 335 332 331 327 321 312 298 283 270 257 251 247 242 249 248
142 150 153 142 119 108 113 99 75 61 55 51 51 51 49 48 47 45 40 35 29 24 21 18 16 14 13 11 9 7 6 6 7 6 6 6 6 6 6 7 9 9 9 10 9 8 8 8 8 8 4 1 3 7 11 12 14 15 14 8 359 353 350 347 344 346 351 355 358 359 356 351 347 340 329 319 304 284 264 248 238 229 214 187 153
124 129 131 122 105 111 115 94 69 58 56 54 52 52 52 52 49 44 39 33 28 25 21 18 15 14 12 10 8 7 6 7 7 7 7 7 7 6 7 9 10 10 11 11 11 11 11 10 11 12 8 4 6 11 14 15 16 15 11 5 360 354 350 349 351 357 5 11 15 14 9 6 3 356 346 337 322 277 230 202 181 154 132 126 126
118 126 110 93 102 114 104 80 65 62 63 60 54 51 53 54 48 40 36 33 29 26 22 17 13 12 11 9 7 7 7 7 8 9 9 9 8 8 8 9 10 11 12 13 13 15 16 14 14 15 13 9 9 13 17 18 18 16 13 10 6 359 355 356 1 10 19 26 28 25 22 21 20 15 14 27 56 93 116 120 117 114 113 115 117